HP3ICC-18 Weather Reports


time (UTC)temp
C
wind
direction
speed
KPH
gust
KPH
rain 1hr
cm
rain 24hr
cm
rain mn
cm
humidity
%
barometer
mb
20260504130314 25 136 1.6 1.6 0.00 0.00 0.00 94 1011.0
20260504130213 25 136 1.6 1.6 0.00 0.00 0.00 94 1011.0
20260504120312 25 136 1.6 1.6 0.00 0.00 0.00 94 1011.0
20260504120212 25 136 1.6 1.6 0.00 0.00 0.00 94 1011.0
20260504110310 25 136 1.6 1.6 0.00 0.00 0.00 94 1010.0
20260504110210 25 136 1.6 1.6 0.00 0.00 0.00 94 1010.0
20260504100309 25 136 1.6 1.6 0.00 0.00 0.00 94 1010.0
20260504100209 25 136 1.6 1.6 0.00 0.00 0.00 94 1010.0
20260504080306 25 136 1.6 1.6 0.00 0.00 0.00 94 1010.0
20260504080206 25 136 1.6 1.6 0.00 0.00 0.00 94 1010.0
20260504070304 26 180 1.6 1.6 0.00 0.00 0.00 90 1010.0
20260504070204 26 180 1.6 1.6 0.00 0.00 0.00 90 1010.0
20260504060202 26 180 1.6 1.6 0.00 0.00 0.00 90 1011.0
20260504050301 26 254 0.0 0.0 0.00 0.00 0.00 90 1011.0
20260504050201 26 254 0.0 0.0 0.00 0.00 0.00 90 1011.0
20260504044301 26 254 0.0 0.0 0.00 0.00 0.00 90 1011.0
20260504044201 26 254 0.0 0.0 0.00 0.00 0.00 90 1011.0
20260504042300 26 245 0.0 0.0 0.00 0.00 0.00 90 1011.0
20260504042200 26 245 0.0 0.0 0.00 0.00 0.00 90 1011.0
20260504040300 26 245 0.0 0.0 0.00 0.00 0.00 90 1011.0
20260504040159 26 245 0.0 0.0 0.00 0.00 0.00 90 1011.0
20260504034259 26 245 0.0 0.0 0.00 0.00 0.00 90 1011.0
20260504034159 26 245 0.0 0.0 0.00 0.00 0.00 90 1011.0
20260504032259 26 199 0.0 0.0 0.00 0.00 0.00 90 1011.0
20260504032158 26 199 0.0 0.0 0.00 0.00 0.00 90 1011.0
20260504030258 26 199 0.0 0.0 0.00 0.00 0.00 90 1011.0
20260504030158 26 199 0.0 0.0 0.00 0.00 0.00 90 1011.0
20260504024257 27 239 1.6 1.6 0.00 0.00 0.00 86 1011.0
20260504024157 27 239 1.6 1.6 0.00 0.00 0.00 86 1011.0
20260504022257 27 239 1.6 1.6 0.00 0.00 0.00 86 1011.0
20260504022157 27 239 1.6 1.6 0.00 0.00 0.00 86 1011.0
20260504020256 27 239 1.6 1.6 0.00 0.00 0.00 86 1011.0
20260504020156 27 239 1.6 1.6 0.00 0.00 0.00 86 1011.0
20260504014256 27 239 1.6 1.6 0.00 0.00 0.00 86 1011.0
20260504014156 27 239 1.6 1.6 0.00 0.00 0.00 86 1011.0
20260504012256 27 239 1.6 1.6 0.00 0.00 0.00 86 1010.0
20260504012155 27 239 1.6 1.6 0.00 0.00 0.00 86 1010.0
20260504010255 27 239 1.6 1.6 0.00 0.00 0.00 86 1010.0
20260504010155 27 239 1.6 1.6 0.00 0.00 0.00 86 1010.0
20260504004254 28 278 1.6 4.8 0.00 0.00 0.00 80 1010.0
20260504004154 28 278 1.6 4.8 0.00 0.00 0.00 80 1010.0
20260504002254 28 278 1.6 4.8 0.00 0.00 0.00 80 1009.0
20260504002154 28 278 1.6 4.8 0.00 0.00 0.00 80 1009.0
20260504000253 28 278 1.6 4.8 0.00 0.00 0.00 80 1009.0
20260504000153 28 278 1.6 4.8 0.00 0.00 0.00 80 1009.0
20260503234253 28 278 1.6 4.8 0.00 0.00 0.00 80 1009.0
20260503234153 28 278 1.6 4.8 0.00 0.00 0.00 80 1009.0
20260503232252 28 278 1.6 4.8 0.03 0.00 0.00 80 1009.0
20260503232152 28 278 1.6 4.8 0.03 0.00 0.00 80 1009.0
20260503230252 28 278 3.2 4.8 0.00 0.00 0.00 80 1009.0
20260503230151 28 278 3.2 4.8 0.00 0.00 0.00 80 1009.0
20260503224251 29 274 6.4 11.3 0.00 0.00 0.00 72 1009.0
20260503224151 29 274 6.4 11.3 0.00 0.00 0.00 72 1009.0
20260503222251 29 274 6.4 11.3 0.00 0.00 0.00 72 1008.0
20260503222150 29 274 6.4 11.3 0.00 0.00 0.00 72 1008.0
20260503220250 29 274 6.4 11.3 0.00 0.00 0.00 72 1008.0
20260503220150 29 274 6.4 11.3 0.00 0.00 0.00 72 1008.0
20260503214250 29 274 6.4 11.3 0.00 0.00 0.00 72 1008.0
20260503214149 29 274 6.4 11.3 0.00 0.00 0.00 72 1008.0
20260503212249 29 274 6.4 11.3 0.00 0.00 0.00 72 1008.0
20260503212149 29 274 6.4 11.3 0.00 0.00 0.00 72 1008.0
20260503210249 29 274 6.4 11.3 0.00 0.00 0.00 72 1008.0
20260503210148 29 274 6.4 11.3 0.00 0.00 0.00 72 1008.0
20260503204248 31 327 4.8 6.4 0.00 0.00 0.00 60 1008.0
20260503204148 31 327 4.8 6.4 0.00 0.00 0.00 60 1008.0
20260503202248 31 327 4.8 6.4 0.03 0.00 0.00 60 1008.0
20260503202147 31 327 4.8 6.4 0.03 0.00 0.00 60 1008.0
20260503200247 31 327 4.8 6.4 0.00 0.00 0.00 60 1008.0
20260503200147 31 327 4.8 6.4 0.00 0.00 0.00 60 1008.0
20260503194247 31 327 4.8 6.4 0.03 0.00 0.00 60 1008.0
20260503194147 31 327 4.8 6.4 0.03 0.00 0.00 60 1008.0
20260503192246 31 327 4.8 6.4 0.00 0.00 0.00 60 1009.0
20260503192146 31 327 4.8 6.4 0.00 0.00 0.00 60 1009.0
20260503190246 31 327 4.8 6.4 0.00 0.00 0.00 60 1009.0
20260503190146 31 327 4.8 6.4 0.00 0.00 0.00 60 1009.0
20260503184245 31 327 4.8 6.4 0.00 0.00 0.00 60 1009.0
20260503184145 31 327 4.8 6.4 0.00 0.00 0.00 60 1009.0
20260503182245 30 352 3.2 4.8 0.00 0.00 0.00 63 1010.0
20260503182145 30 352 3.2 4.8 0.00 0.00 0.00 63 1010.0
20260503180245 30 352 1.6 4.8 0.00 0.00 0.00 63 1010.0
20260503180144 30 352 1.6 4.8 0.00 0.00 0.00 63 1010.0
20260503174244 30 352 3.2 4.8 0.00 0.00 0.00 63 1010.0
20260503174144 30 352 3.2 4.8 0.00 0.00 0.00 63 1010.0
20260503172244 28 43 3.2 3.2 0.00 0.00 0.00 64 1011.0
20260503172143 28 43 3.2 3.2 0.00 0.00 0.00 64 1011.0
20260503170243 28 43 3.2 3.2 0.00 0.00 0.00 64 1011.0
20260503170143 28 43 3.2 3.2 0.00 0.00 0.00 64 1011.0
20260503160141 27 103 3.2 3.2 0.00 0.00 0.00 74 1012.0
20260503150240 27 116 3.2 3.2 0.00 0.00 0.00 81 1012.0
20260503150139 27 116 3.2 3.2 0.00 0.00 0.00 81 1012.0
20260503140238 25 156 1.6 1.6 0.00 0.00 0.00 86 1012.0
20260503140137 25 156 1.6 1.6 0.00 0.00 0.00 86 1012.0